Overview Statistics Trail Chart Weather Telemetry Raw packets
 

This is the latest recevied weather packets stored in our database for station/object W1HVD. If no packets are shown the sender has not sent any weather packets the latest 10 day(s).

<< 57 58 59 60 61 62 63 >>
Time Temp. Humidity Pressure Rain* Wind** Luminosity Snow
1777287262 2.22° C 97% 1023.9 hPa 0 mm - 33 W/m² -
1777286960 2.22° C 97% 1023.7 hPa 0 mm - 27 W/m² -
1777286656 1.67° C 98% 1023.8 hPa 0 mm - 24 W/m² -
1777286354 1.67° C 98% 1023.5 hPa 0 mm - 24 W/m² -
1777286051 1.67° C 98% 1023.5 hPa 0 mm - 20 W/m² -
1777285748 1.11° C 98% 1023.4 hPa 0 mm - 18 W/m² -
1777285445 1.11° C 98% 1023.5 hPa 0 mm - 17 W/m² -
1777285142 1.11° C 98% 1023.2 hPa 0 mm - 15 W/m² -
1777284840 1.11° C 97% 1023.4 hPa 0 mm - 13 W/m² -
1777284537 0.56° C 97% 1023.3 hPa 0 mm - 11 W/m² -
1777284233 0.56° C 97% 1023.3 hPa 0 mm - 9 W/m² -
1777283930 0.56° C 97% 1023.3 hPa 0 mm - 7 W/m² -
1777283626 1.11° C 97% 1023.1 hPa 0 mm - 5 W/m² -
1777283326 1.11° C 97% 1023.2 hPa 0 mm - 3 W/m² -
1777283024 0.56° C 97% 1023.1 hPa 0 mm - 2 W/m² -
1777282724 0.56° C 97% 1023.2 hPa 0 mm - 1 W/m² -
1777282420 0.56° C 97% 1023 hPa 0 mm - 0 W/m² -
1777282118 0.56° C 97% 1022.9 hPa 0 mm - 0 W/m² -
1777281816 0.56° C 97% 1022.8 hPa 0 mm - 0 W/m² -
1777281512 0.56° C 97% 1022.8 hPa 0 mm - 0 W/m² -
1777281209 1.11° C 97% 1022.8 hPa 0 mm - 0 W/m² -
1777280906 1.11° C 97% 1022.8 hPa 0 mm - 0 W/m² -
1777280602 1.11° C 97% 1022.6 hPa 0 mm - 0 W/m² -
1777280300 0.56° C 97% 1022.4 hPa 0 mm - 0 W/m² -
1777279996 0.56° C 97% 1022.6 hPa 0 mm - 0 W/m² -

* Rain latest hour (hover to see other rain measurements)
** Current wind speed in m/s (hover to see current wind gust speed)